Linden, WI

5:53 PM CST on December 02, 2016 (GMT -0600)
Iowa County

Weather History for KMRJ - May, 2014

Change the Weather History Date:

Saturday, May 3, 2014

  Actual Average (KLNR) Record (KLNR)
Temperature  
Mean Temperature 53 °F -  
Max Temperature 64 °F 64 °F 84 °F (2012)
Min Temperature 42 °F 43 °F 21 °F (2005)
Degree Days  
Heating Degree Days 12    
Growing Degree Days 3 (Base 50)    
Moisture  
Dew Point 35 °F    
Average Humidity 54    
Maximum Humidity 87    
Minimum Humidity 27    
Precipitation  
Precipitation 0.00 in - - ()
Sea Level Pressure  
Sea Level Pressure 29.78 in    
Wind  
Wind Speed 11 mph (WNW)    
Max Wind Speed 26 mph    
Max Gust Speed 33 mph    
Visibility 10 miles    
Events      
Averages and records for this station are not official NWS values.
T = Trace of Precipitation, MM = Missing Value Source: NWS Daily Summary

Daily Weather History Graph

Daily Weather History Graph

Search for Another Location

Airport or City:

Trip Planner

Search our weather history database for the weather conditions in past years. The results will help you decide how hot, cold, wet, or windy it might be!

Date:

Astronomy

May. 03, 2014 Rise Set
Actual Time 5:52 AM CDT 8:04 PM CDT
Civil Twilight 5:21 AM CDT 8:35 PM CDT
Nautical Twilight 4:42 AM CDT 9:13 PM CDT
Astronomical Twilight 4:00 AM CDT 9:56 PM CDT
Moon 9:20 AM CDT (5/3) No Moon Set
Length of Visible Light 15h 14m
Length of Day
14h 11m
Waxing Crescent, 20% of the Moon is Illuminated
May 3
Waxing Crescent
May 6
First Quarter
May 14
Full
May 21
Last Quarter
May 28
New

Hourly Weather History & Observations

Time (CDT) Temp. Windchill Dew Point Humidity Pressure Visibility Wind Dir Wind Speed Gust Speed Precip Events Conditions
12:15 AM 48.2 °F - 42.8 °F 82% 29.65 in 10.0 mi West 6.9 mph - N/A   Mostly Cloudy
12:35 AM 46.4 °F 43.5 °F 42.8 °F 87% 29.65 in 10.0 mi West 5.8 mph - N/A   Scattered Clouds
12:55 AM 46.4 °F 41.9 °F 42.8 °F 87% 29.65 in 10.0 mi West 9.2 mph - N/A   Clear
1:15 AM 46.4 °F 42.4 °F 42.8 °F 87% 29.65 in 10.0 mi WNW 8.1 mph - N/A   Scattered Clouds
1:35 AM 46.4 °F 41.9 °F 42.8 °F 87% 29.65 in 10.0 mi WNW 9.2 mph - N/A   Scattered Clouds
1:55 AM 46.4 °F 41.1 °F 42.8 °F 87% 29.65 in 10.0 mi West 11.5 mph - N/A   Scattered Clouds
2:10 AM 46.4 °F 41.9 °F 42.8 °F 87% 29.66 in 10.0 mi WNW 9.2 mph - N/A   Clear
2:35 AM 46.4 °F 41.5 °F 42.8 °F 87% 29.67 in 10.0 mi WNW 10.4 mph - N/A   Clear
2:55 AM 46.4 °F 42.9 °F 42.8 °F 87% 29.67 in 10.0 mi West 6.9 mph - N/A   Clear
3:15 AM 46.4 °F 42.4 °F 42.8 °F 87% 29.68 in 10.0 mi West 8.1 mph - N/A   Clear
3:35 AM 44.6 °F 39.7 °F 41.0 °F 87% 29.68 in 10.0 mi West 9.2 mph - N/A   Clear
3:55 AM 44.6 °F 40.7 °F 41.0 °F 87% 29.69 in 10.0 mi WNW 6.9 mph - N/A   Clear
4:15 AM 44.6 °F 40.2 °F 41.0 °F 87% 29.69 in 10.0 mi West 8.1 mph - N/A   Clear
4:35 AM 44.6 °F 39.7 °F 41.0 °F 87% 29.70 in 10.0 mi West 9.2 mph - N/A   Clear
4:55 AM 44.6 °F 39.2 °F 41.0 °F 87% 29.70 in 10.0 mi West 10.4 mph - N/A   Clear
5:15 AM 42.8 °F 38.0 °F 39.2 °F 87% 29.70 in 10.0 mi West 8.1 mph - N/A   Clear
5:35 AM 44.6 °F 39.7 °F 39.2 °F 81% 29.70 in 10.0 mi West 9.2 mph - N/A   Clear
5:55 AM 42.8 °F 37.0 °F 39.2 °F 87% 29.71 in 10.0 mi West 10.4 mph - N/A   Clear
6:15 AM 42.8 °F 37.5 °F 37.4 °F 81% 29.72 in 10.0 mi WNW 9.2 mph - N/A   Clear
6:35 AM 44.6 °F 40.2 °F 37.4 °F 76% 29.73 in 10.0 mi West 8.1 mph - N/A   Clear
6:55 AM 44.6 °F 39.7 °F 37.4 °F 76% 29.74 in 10.0 mi WNW 9.2 mph - N/A   Clear
7:15 AM 46.4 °F 41.5 °F 37.4 °F 71% 29.75 in 10.0 mi West 10.4 mph - N/A   Clear
7:35 AM 46.4 °F 41.1 °F 37.4 °F 71% 29.76 in 10.0 mi WNW 11.5 mph 17.3 mph N/A   Clear
7:55 AM 48.2 °F - 37.4 °F 66% 29.77 in 10.0 mi WNW 9.2 mph - N/A   Clear
8:15 AM 50.0 °F - 35.6 °F 58% 29.77 in 10.0 mi WNW 12.7 mph 19.6 mph N/A   Clear
8:35 AM 51.8 °F - 35.6 °F 54% 29.78 in 10.0 mi WNW 12.7 mph 20.7 mph N/A   Clear
8:55 AM 51.8 °F - 35.6 °F 54% 29.79 in 10.0 mi WNW 12.7 mph - N/A   Clear
9:15 AM 53.6 °F - 35.6 °F 51% 29.79 in 10.0 mi WNW 12.7 mph 19.6 mph N/A   Clear
9:35 AM 53.6 °F - 33.8 °F 47% 29.79 in 10.0 mi WNW 12.7 mph 19.6 mph N/A   Clear
9:55 AM 55.4 °F - 33.8 °F 44% 29.79 in 5.0 mi WNW 12.7 mph 23.0 mph N/A   Haze
10:15 AM 55.4 °F - 33.8 °F 44% 29.79 in 10.0 mi NW 12.7 mph - N/A   Clear
10:35 AM 57.2 °F - 32.0 °F 38% 29.79 in 10.0 mi West 17.3 mph 21.9 mph N/A   Clear
10:55 AM 57.2 °F - 32.0 °F 38% 29.80 in 10.0 mi WNW 13.8 mph 24.2 mph N/A   Clear
11:15 AM 57.2 °F - 32.0 °F 38% 29.80 in 10.0 mi WNW 13.8 mph 32.2 mph N/A   Clear
11:35 AM 59.0 °F - 32.0 °F 36% 29.80 in 10.0 mi West 19.6 mph 27.6 mph N/A   Clear
11:55 AM 59.0 °F - 33.8 °F 39% 29.80 in 10.0 mi WNW 16.1 mph 25.3 mph N/A   Clear
12:15 PM 59.0 °F - 33.8 °F 39% 29.80 in 10.0 mi West 19.6 mph 27.6 mph N/A   Scattered Clouds
12:35 PM 60.8 °F - 32.0 °F 34% 29.81 in 10.0 mi WNW 13.8 mph 20.7 mph N/A   Scattered Clouds
12:55 PM 60.8 °F - 32.0 °F 34% 29.81 in 10.0 mi West 19.6 mph 28.8 mph N/A   Scattered Clouds
1:15 PM 60.8 °F - 32.0 °F 34% 29.81 in 10.0 mi WNW 15.0 mph 32.2 mph N/A   Mostly Cloudy
1:35 PM 62.6 °F - 32.0 °F 32% 29.81 in 10.0 mi WNW 18.4 mph 25.3 mph N/A   Mostly Cloudy
1:55 PM 60.8 °F - 32.0 °F 34% 29.81 in 10.0 mi West 16.1 mph 19.6 mph N/A   Mostly Cloudy
2:15 PM 60.8 °F - 32.0 °F 34% 29.80 in 10.0 mi WNW 15.0 mph 23.0 mph N/A   Scattered Clouds
2:35 PM 62.6 °F - 32.0 °F 32% 29.80 in 10.0 mi WNW 16.1 mph 28.8 mph N/A   Mostly Cloudy
2:55 PM 62.6 °F - 32.0 °F 32% 29.80 in 10.0 mi West 17.3 mph 27.6 mph N/A   Mostly Cloudy
3:15 PM 64.4 °F - 32.0 °F 30% 29.80 in 10.0 mi West 12.7 mph 26.5 mph N/A   Scattered Clouds
3:55 PM 62.6 °F - 32.0 °F 32% 29.80 in 10.0 mi WNW 16.1 mph 24.2 mph N/A   Scattered Clouds
4:15 PM 64.4 °F - 30.2 °F 28% 29.80 in 10.0 mi West 19.6 mph 29.9 mph N/A   Scattered Clouds
4:35 PM 64.4 °F - 30.2 °F 28% 29.80 in 10.0 mi West 26.5 mph 33.4 mph N/A   Scattered Clouds
4:55 PM 62.6 °F - 28.4 °F 27% 29.81 in 10.0 mi West 20.7 mph 31.1 mph N/A   Mostly Cloudy
5:15 PM 62.6 °F - 30.2 °F 30% 29.81 in 10.0 mi West 17.3 mph 27.6 mph N/A   Scattered Clouds
5:35 PM 62.6 °F - 30.2 °F 30% 29.82 in 10.0 mi WNW 17.3 mph 28.8 mph N/A   Clear
5:55 PM 62.6 °F - 30.2 °F 30% 29.82 in 10.0 mi West 17.3 mph 28.8 mph N/A   Mostly Cloudy
6:15 PM 62.6 °F - 32.0 °F 32% 29.82 in 10.0 mi West 19.6 mph 27.6 mph N/A   Mostly Cloudy
6:35 PM 60.8 °F - 32.0 °F 34% 29.82 in 10.0 mi West 17.3 mph 21.9 mph N/A   Scattered Clouds
6:55 PM 60.8 °F - 32.0 °F 34% 29.83 in 10.0 mi West 17.3 mph 23.0 mph N/A   Clear
7:15 PM 59.0 °F - 32.0 °F 36% 29.84 in 10.0 mi West 13.8 mph 20.7 mph N/A   Scattered Clouds
7:35 PM 59.0 °F - 33.8 °F 39% 29.84 in 10.0 mi West 12.7 mph - N/A   Scattered Clouds
7:55 PM 57.2 °F - 33.8 °F 41% 29.84 in 10.0 mi West 10.4 mph - N/A   Scattered Clouds
8:15 PM 55.4 °F - 33.8 °F 44% 29.85 in 10.0 mi West 10.4 mph - N/A   Scattered Clouds
8:35 PM 55.4 °F - 33.8 °F 44% 29.85 in 10.0 mi West 9.2 mph - N/A   Mostly Cloudy
8:55 PM 55.4 °F - 33.8 °F 44% 29.86 in 10.0 mi WNW 10.4 mph - N/A   Mostly Cloudy
9:15 PM 55.4 °F - 32.0 °F 41% 29.87 in 10.0 mi WNW 9.2 mph - N/A   Scattered Clouds
9:35 PM 53.6 °F - 32.0 °F 44% 29.88 in 10.0 mi WNW 9.2 mph - N/A   Clear
9:55 PM 53.6 °F - 32.0 °F 44% 29.89 in 10.0 mi WNW 10.4 mph - N/A   Scattered Clouds
10:15 PM 53.6 °F - 32.0 °F 44% 29.89 in 10.0 mi WNW 11.5 mph - N/A   Mostly Cloudy
10:35 PM 53.6 °F - 32.0 °F 44% 29.90 in 10.0 mi WNW 9.2 mph - N/A   Scattered Clouds
10:55 PM 53.6 °F - 32.0 °F 44% 29.90 in 10.0 mi WNW 9.2 mph - N/A   Scattered Clouds
11:15 PM 53.6 °F - 32.0 °F 44% 29.90 in 10.0 mi WNW 8.1 mph - N/A   Scattered Clouds
11:35 PM 51.8 °F - 30.2 °F 44% 29.91 in 10.0 mi WNW 9.2 mph 16.1 mph N/A   Clear
11:55 PM 51.8 °F - 32.0 °F 47% 29.91 in 10.0 mi West 6.9 mph - N/A   Mostly Cloudy